Regional Weather Roundup
Issued by NWS

Home | Current Version | Previous Version | Text Only | Print | Product List | Glossary On
Versions: 1 2 3 4 5 6 7 8 9 10 11 12 13 14 15 16 17 18 19 20 21 22 23 24 25 26 27 28 29 30 31 32 33 34 35 36 37 38 39 40 41 42 43 44 45 46 47 48 49 50
000
ASUS46 KSEW 051310
RWRWA

WASHINGTON REGIONAL WEATHER ROUNDUP
NATIONAL WEATHER SERVICE SEATTLE WA
600 AM PDT TUE MAY 05 2015

NOTE:"FAIR" INDICATES FEW OR NO CLOUDS BELOW 12,000 FEET WITH NO
SIGNIFICANT WEATHER AND/OR OBSTRUCTIONS TO VISIBILITY.

WAZ505-507>509-051400-
SEATTLE, TACOMA, EVERETT, AND VICINITY

CITY           SKY/WX    TMP DP  RH WIND       PRES   REMARKS
EVERETT        LGT RAIN  47  41  80 S21G28    29.96R
BOEING FIELD   MOCLDY    50  44  80 SE10      29.99S
RENTON         MOCLDY    49  41  74 SE8       30.00R
SEATAC AIRPORT MOCLDY    47  43  86 S12       29.99S
JBLM-MCCHORD   LGT RAIN  46  45  99 S8        30.00S
PUYALLUP       CLOUDY    46  43  87 S5        30.01S
BREMERTON      CLOUDY    45  43  93 S8        30.00S
JBLM-FT LEWIS  LGT RAIN  47  44  91 S8        30.00S
TACOMA NARROWS LGT RAIN  47  42  83 S13       30.00R
$$

WAZ001-503-506-510-514-515-051400-
NORTH INTERIOR

CITY           SKY/WX    TMP DP  RH WIND       PRES   REMARKS
BELLINGHAM     LGT RAIN  46  44  93 SE8       29.95R
FRIDAY HARBOR  LGT RAIN  45  43  93 CALM      29.97R
EASTSOUND      CLOUDY    46  45  93 SW3       29.94S
PORT ANGELES   LGT RAIN  45  41  86 W8        29.96R
NAS WHIDBEY    TSTM      49  42  77 NW5       29.97R
ARLINGTON      CLOUDY    48  39  71 SE13      29.98S
BURLINGTON     CLOUDY    46  45  93 N6        29.97R FOG
$$

WAZ020-022-039-040-504-511-512-051400-
SOUTHWEST INTERIOR

CITY           SKY/WX    TMP DP  RH WIND       PRES   REMARKS
SHELTON        LGT RAIN  44  43  96 S3        29.98S
OLYMPIA        RAIN      45  43  93 W6        30.02R FOG
CHEHALIS       CLOUDY    46  46 100 VRB3      30.02S
KELSO          CLOUDY    48  41  76 SE5       30.09S
VANCOUVER      LGT RAIN  50  43  77 S5        30.07R
SCAPPOOSE, OR  CLOUDY    44  41  89 CALM      30.06S
PORTLAND, OR   CLOUDY    49  45  86 SW8       30.08R
$$

WAZ021-516-517-051400-
WASHINGTON COAST

CITY           SKY/WX    TMP DP  RH WIND       PRES   REMARKS
FORKS          CLOUDY    44  44 100 SE3       29.96R
HOQUIAM        LGT RAIN  46  42  86 W6        30.00R
ASTORIA, OR    LGT RAIN  47  42  83 SW6       30.03S
$$

WAZ019-023-024-040-518-519-051400-
CASCADE MOUNTAINS AND COLUMBIA GORGE

CITY           SKY/WX    TMP DP  RH WIND       PRES   REMARKS
TROUTDALE, OR  CLOUDY    51  43  74 W8        30.07R
THE DALLES, OR CLEAR     49  39  68 W6        30.03R
$$

WAZ026-027-041>044-520-521-051400-
EAST SLOPES

CITY           SKY/WX    TMP DP  RH WIND       PRES   REMARKS
OMAK           CLEAR     45  28  51 S6        29.84R
WENATCHEE      CLEAR     52  26  36 W13G26    29.90R
ELLENSBURG     CLEAR     41  31  67 NW12      29.93S
YAKIMA         CLEAR     37  28  70 CALM      29.95R
$$

WAZ028-034-035-051400-
COLUMBIA BASIN

CITY           SKY/WX    TMP DP  RH WIND       PRES   REMARKS
EPHRATA        CLEAR     41  32  70 CALM      29.90R
MOSES LAKE     CLEAR     47  33  58 SW7       29.92R
PASCO          CLEAR     49  38  65 SW8       29.98R
HERMISTON, OR  PTCLDY    46  37  71 SW12      30.00R
$$

WAZ036>038-051400-
NORTHEAST WASHINGTON

CITY           SKY/WX    TMP DP  RH WIND       PRES   REMARKS
SPOKANE GEIGER MOCLDY    43  33  68 SW15      29.90R
SPOKANE FELTS  CLEAR     46  33  60 SW8       29.92R
FAIRCHILD AFB  CLEAR     39  32  75 S13       29.90R
COEURDALENE,ID CLEAR     43  32  65 N3        29.94R
DEER PARK      CLEAR     39  32  76 S9        29.91R
$$

WAZ029>033-051400-
SOUTHEAST WASHINGTON

CITY           SKY/WX    TMP DP  RH WIND       PRES   REMARKS
PULLMAN        CLEAR     44  36  73 SW12      29.96R
LEWISTON, ID   MOCLDY    53  33  46 W10       29.93R
WALLA WALLA    CLOUDY    50  38  63 S12       29.99R
PENDLETON, OR  CLOUDY    47  35  63 W15       29.99R
$$


USA.gov is the U.S. government's official web portal to all federal, state and local government web resources and services.